Weather History for Durango, CO

Change the Weather History Date:

Wednesday, June 4, 2014

  Actual Average Record
Temperature  
Mean Temperature 60 °F 59 °F  
Max Temperature 84 °F 78 °F 91 °F (1990)
Min Temperature 35 °F 40 °F 28 °F (1999)
Degree Days  
Heating Degree Days 5 7  
Month to date heating degree days 13 28  
Since 1 June heating degree days 13 28  
Since 1 July heating degree days 6766 7036  
Cooling Degree Days 0 0  
Month to date cooling degree days 0 0  
Year to date cooling degree days 5 1  
Since 1 June cooling degree days 0 0  
Growing Degree Days 10 (Base 50)    
Moisture  
Dew Point 13 °F    
Average Humidity 28    
Maximum Humidity 52    
Minimum Humidity 3    
Precipitation  
Precipitation 0.00 in 0.02 in 0.39 in (1973)
Month to date precipitation 0.00 0.06  
Year to date precipitation 2.40 5.49  
Sea Level Pressure  
Sea Level Pressure 29.86 in    
Wind  
Wind Speed 8 mph (NW)    
Max Wind Speed 24 mph    
Max Gust Speed 31 mph    
Visibility 10 miles    
Events      
T = Trace of Precipitation, MM = Missing Value Source: NWS Daily Summary

Daily Weather History Graph

Daily Weather History Graph

Search for Another Location

Airport:

Trip Planner

Search our weather history database for the weather conditions in past years. The results will help you decide how hot, cold, wet, or windy it might be!

Date:

Astronomy

Jun. 04, 2014 Rise Set
Actual Time 5:51 AM MDT 8:27 PM MDT
Civil Twilight 5:21 AM MDT 8:58 PM MDT
Nautical Twilight 4:43 AM MDT 9:35 PM MDT
Astronomical Twilight 4:01 AM MDT 10:18 PM MDT
Moon 12:07 PM MDT (6/4) 12:33 AM MDT (6/4)
Length of Visible Light 15h 36m
Length of Day
14h 35m
Waxing Crescent, 39% of the Moon is Illuminated
Jun 4
Waxing Crescent
Jun 5
First Quarter
Jun 12
Full
Jun 19
Last Quarter
Jun 27
New

Hourly Weather History & Observations

Time (MDT) Temp. Windchill Dew Point Humidity Pressure Visibility Wind Dir Wind Speed Gust Speed Precip Events Conditions
1:53 AM 48.0 °F - 21.9 °F 36% 29.85 in 10.0 mi North 6.9 mph - N/A   Clear
2:53 AM 45.0 °F 41.8 °F 21.9 °F 40% 29.86 in 10.0 mi North 5.8 mph - N/A   Clear
3:53 AM 44.1 °F 40.8 °F 21.0 °F 40% 29.88 in 10.0 mi North 5.8 mph - N/A   Clear
4:53 AM 37.0 °F - 21.9 °F 54% 29.91 in 10.0 mi Calm Calm - N/A   Clear
5:53 AM 41.0 °F 37.1 °F 19.0 °F 41% 29.91 in 10.0 mi North 5.8 mph - N/A   Clear
6:53 AM 43.0 °F - 23.0 °F 45% 29.92 in 10.0 mi Calm Calm - N/A   Clear
7:53 AM 53.1 °F - 27.0 °F 37% 29.90 in 10.0 mi Calm Calm - N/A   Clear
8:53 AM 61.0 °F - 24.1 °F 24% 29.90 in 10.0 mi Calm Calm - N/A   Clear
9:53 AM 66.9 °F - 24.1 °F 20% 29.92 in 10.0 mi East 5.8 mph - N/A   Clear
10:53 AM 72.0 °F - 19.0 °F 13% 29.88 in 10.0 mi East 8.1 mph - N/A   Clear
11:53 AM 77.0 °F - 9.0 °F 7% 29.86 in 10.0 mi North - - N/A   Clear
12:53 PM 79.0 °F - 5.0 °F 6% 29.86 in 10.0 mi West 13.8 mph 19.6 mph N/A   Clear
1:53 PM 82.0 °F - -0.0 °F 4% 29.84 in 10.0 mi WSW 21.9 mph 28.8 mph N/A   Clear
2:53 PM 84.0 °F - -0.0 °F 4% 29.83 in 10.0 mi West 18.4 mph 26.5 mph N/A   Clear
3:53 PM 82.9 °F - -2.0 °F 4% 29.82 in 10.0 mi WSW 12.7 mph 28.8 mph N/A   Clear
4:53 PM 82.0 °F - 1.0 °F 4% 29.83 in 10.0 mi WSW 11.5 mph 26.5 mph N/A   Clear
5:53 PM 81.0 °F - -6.0 °F 4% 29.81 in 10.0 mi WNW 15.0 mph 21.9 mph N/A   Clear
6:53 PM 79.0 °F - -4.0 °F 4% 29.81 in 10.0 mi West 10.4 mph - N/A   Clear
7:53 PM 73.9 °F - 6.1 °F 7% 29.80 in 10.0 mi NW 11.5 mph - N/A   Clear
9:53 PM 60.1 °F - 10.9 °F 14% 29.83 in 10.0 mi NE 5.8 mph - N/A   Clear
10:53 PM 60.1 °F - 19.0 °F 20% 29.82 in 10.0 mi North 5.8 mph - N/A   Clear
11:53 PM 57.0 °F - 19.9 °F 24% 29.81 in 10.0 mi North 5.8 mph - N/A   Clear